DW8248 Weather Reports


time (UTC)temp
F
wind
direction
speed
knots
gust
knots
rain 1hr
in
rain 24hr
in
rain mn
in
humidity
%
barometer
mb
20260903201938 84 105 5.2 9.6 0.00 0.00 0.00 81 1013.1
20260903195839 84 105 4.3 10.4 0.00 0.00 0.00 83 1013.2
20260903194839 84 98 3.5 11.3 0.00 0.00 0.00 82 1013.4
20260903193808 84 99 5.2 11.3 0.00 0.00 0.00 82 1013.5
20260903192750 84 0 3.5 9.6 0.00 0.00 0.00 82 1013.6
20260903191753 84 153 3.5 10.4 0.00 0.00 0.00 83 1013.7
20260903190735 84 115 4.3 10.4 0.00 0.00 0.00 82 1013.7
20260903185738 84 53 4.3 9.6 0.00 0.00 0.00 82 1013.7
20260903182514 85 105 5.2 12.2 0.00 0.00 0.00 82 1014.3
20260903181518 85 82 4.3 10.4 0.00 0.00 0.00 82 1014.1
20260903180520 85 115 5.2 11.3 0.00 0.00 0.00 82 1014.2
20260903175504 84 102 6.1 11.3 0.00 0.00 0.00 82 1014.5
20260903174515 84 103 5.2 11.3 0.00 0.00 0.00 83 1014.5
20260903173513 84 86 5.2 9.6 0.00 0.00 0.00 83 1014.5
20260903172456 84 63 5.2 11.3 0.00 0.00 0.00 82 1014.3
20260903171420 84 90 6.1 11.3 0.00 0.00 0.00 82 1014.2
20260903170344 84 105 4.3 8.7 0.00 0.00 0.00 82 1014.5
20260903164230 84 25 3.5 7.8 0.00 0.00 0.00 81 1014.7
20260903163228 84 44 3.5 9.6 0.00 0.00 0.00 81 1014.9
20260903160002 84 94 2.6 7.0 0.00 0.00 0.00 80 1015.4
20260903154955 84 64 2.6 6.1 0.00 0.00 0.00 80 1015.4
20260903154002 84 65 1.7 4.3 0.00 0.00 0.00 80 1015.4
20260903153004 84 48 1.7 4.3 0.00 0.00 0.00 80 1015.4
20260903150859 84 51 1.7 5.2 0.00 0.00 0.00 80 1015.5
20260903145912 84 74 1.7 4.3 0.00 0.00 0.00 80 1015.4
20260903144855 84 40 1.7 4.3 0.00 0.00 0.00 79 1015.4
20260903143847 85 36 0.9 3.5 0.00 0.00 0.00 78 1015.3
20260903142853 84 55 0.0 0.0 0.00 0.00 0.00 75 1015.1
20260903141841 84 55 0.0 0.0 0.00 0.00 0.00 76 1014.9
20260903140831 84 150 0.0 0.0 0.00 0.00 0.00 77 1014.9
20260903135829 83 159 0.9 2.6 0.00 0.00 0.00 78 1014.8
20260903134811 83 201 1.7 3.5 0.00 0.00 0.00 79 1014.7
20260903133738 83 205 0.9 3.5 0.00 0.00 0.00 81 1014.7
20260903132752 82 245 0.0 0.0 0.00 0.00 0.00 84 1014.6
20260903131809 82 241 0.0 0.0 0.00 0.00 0.00 84 1014.7
20260903125710 82 236 1.7 3.5 0.00 0.00 0.00 86 1014.2
20260903124639 82 214 2.6 3.5 0.00 0.00 0.00 86 1014.3
20260903123639 81 194 2.6 3.5 0.00 0.00 0.00 86 1014.5
20260903120330 81 177 3.5 7.0 0.00 0.00 0.00 87 1014.3
20260903115318 81 202 5.2 7.0 0.00 0.00 0.00 87 1014.3
20260903114327 82 213 3.5 6.1 0.00 0.00 0.00 87 1013.9
20260903112217 82 215 0.9 3.5 0.00 0.00 0.00 88 1013.9
20260903111141 81 217 2.6 3.5 0.00 0.00 0.00 88 1013.4
20260903110127 81 232 1.7 4.3 0.00 0.00 0.00 88 1013.3
20260903103958 81 219 3.5 5.2 0.00 0.00 0.00 87 1012.9
20260903102941 81 225 3.5 5.2 0.00 0.00 0.00 87 1013.0
20260903101930 82 223 3.5 5.2 0.00 0.00 0.00 87 1013.0
20260903100854 82 221 3.5 6.1 0.00 0.00 0.00 87 1012.8
20260903095833 82 215 5.2 7.0 0.00 0.00 0.00 87 1012.9
20260903094819 82 214 6.1 10.4 0.00 0.00 0.00 86 1012.8
20260903092614 83 185 2.6 7.8 0.00 0.00 0.00 85 1012.8
20260903091559 83 143 1.7 3.5 0.00 0.00 0.00 84 1012.9
20260903085357 83 118 1.7 4.3 0.00 0.40 0.00 85 1012.5
20260903084401 83 160 1.7 4.3 0.00 0.51 0.00 85 1012.5
20260903083418 83 107 0.9 3.5 0.00 0.51 0.00 84 1012.6
20260903082417 83 120 0.9 4.3 0.00 0.51 0.00 84 1012.5
20260903081353 84 96 0.9 6.1 0.00 0.51 0.00 84 1012.5
20260903073022 84 119 0.9 2.6 0.00 0.51 0.00 82 1012.4
20260903072012 84 107 0.9 3.5 0.00 0.51 0.00 81 1012.5
20260903065846 84 119 1.7 6.1 0.00 0.51 0.00 81 1012.5
20260903064833 84 132 1.7 5.2 0.00 0.51 0.00 81 1012.7
20260903063832 83 132 1.7 7.0 0.00 0.51 0.00 82 1012.9
20260903062818 83 106 2.6 7.0 0.00 0.51 0.00 83 1013.1
20260903061759 84 115 2.6 5.2 0.00 0.51 0.00 84 1013.3
20260903060724 84 144 1.7 5.2 0.00 0.51 0.00 83 1013.4
20260903055657 84 146 0.9 5.2 0.00 0.51 0.00 83 1013.6
20260903054712 84 111 1.7 5.2 0.00 0.51 0.00 83 1013.6
20260903053707 84 138 0.9 6.1 0.00 0.51 0.00 84 1013.8
20260903051523 84 124 1.7 5.2 0.00 0.51 0.00 83 1013.9
20260903050448 84 158 2.6 6.1 0.00 0.51 0.00 82 1014.0
20260903044311 84 140 3.5 7.0 0.00 0.51 0.00 82 1014.2
20260903043240 84 142 2.6 6.1 0.00 0.51 0.00 82 1014.3
20260903041135 84 116 2.6 7.8 0.00 0.51 0.00 82 1014.6
20260903033924 84 93 2.6 6.1 0.00 0.51 0.51 82 1014.7
20260903032858 84 76 1.7 6.1 0.00 0.51 0.51 82 1014.7
20260903030642 84 142 3.5 7.8 0.00 0.51 0.51 81 1014.7
20260903025658 84 118 3.5 7.8 0.00 0.51 0.51 80 1014.7
20260903024701 84 140 2.6 7.0 0.00 0.51 0.51 82 1014.6
20260903023700 84 103 2.6 6.1 0.00 0.51 0.51 82 1014.7
20260903021538 84 88 1.7 6.1 0.00 0.51 0.51 82 1014.7
20260903020557 84 0 1.7 4.3 0.00 0.51 0.51 82 1014.6
20260903015521 84 106 1.7 5.2 0.00 0.51 0.51 82 1014.6
20260903012230 84 107 2.6 7.0 0.00 0.51 0.51 81 1014.3
20260903011238 84 73 1.7 7.0 0.00 0.51 0.51 80 1014.3
20260903010210 84 96 2.6 7.8 0.00 0.51 0.51 80 1014.2
20260903005138 84 77 2.6 7.8 0.00 0.51 0.51 80 1014.0
20260903004138 84 101 3.5 9.6 0.00 0.51 0.51 80 1014.0
20260903003145 84 51 3.5 9.6 0.00 0.51 0.51 81 1013.9
20260903001033 84 117 2.6 7.0 0.00 0.51 0.51 81 1013.7
20260903000040 84 96 1.7 5.2 0.00 0.51 0.51 80 1013.8
20260902232805 85 110 3.5 6.1 0.00 0.51 0.51 81 1013.5
20260902231800 85 92 2.6 6.1 0.00 0.51 0.51 80 1013.5
20260902230726 85 97 2.6 6.1 0.00 0.51 0.51 80 1013.3
20260902225705 85 117 3.5 7.0 0.00 0.51 0.51 80 1013.2
20260902224649 85 83 2.6 7.8 0.00 0.51 0.51 80 1013.1
20260902223657 85 78 2.6 7.8 0.00 0.51 0.51 81 1013.2
20260902222629 85 96 3.5 6.1 0.00 0.51 0.51 81 1013.1
20260902220521 85 87 3.5 7.0 0.00 0.51 0.51 81 1013.2
20260902214409 85 94 2.6 6.1 0.00 0.51 0.51 81 1013.5
20260902212241 85 89 2.6 6.1 0.00 0.51 0.51 81 1013.4
20260902211235 85 109 2.6 7.0 0.00 0.51 0.51 81 1013.3
20260902210213 85 104 2.6 7.8 0.00 0.51 0.51 81 1013.3